Home   Weather   Teresina   Past weeks

Flag for Brazil Past Weather in Teresina, Piauí, Brazil — Yesterday and Last 2 Weeks

Now
77 °F

Clear.


Feels Like: 79 °F
Forecast: 73 / 101 °F
Wind: 3 mph from West

Location: Teresina Aeroporto

Current Time: Sep 22, 2018 at 4:20:49 am

Latest Report: Sep 22, 2018 at 3:00 am


Visibility: 10 mi

Pressure: 29.80 "Hg

Humidity: 74%

Dew Point: 68 °F

Location of TeresinaLocation

Past Weather in Teresina — Graph

°F

Teresina Temperature Yesterday

Maximum temperature yesterday: 100 °F (at 3:00 pm)
Minimum temperature yesterday: 77 °F (at 5:00 am)
Average temperature yesterday: 88 °F

High & Low Weather Summary for the Past Weeks

 TemperatureHumidityPressure
High104 °F (Sep 18, 4:00 pm)94% (Sep 7, 6:00 am)29.95 "Hg (Sep 7, 6:00 am)
Low73 °F (Sep 8, 6:00 am)17% (Sep 18, 4:00 pm)29.68 "Hg (Sep 18, 4:00 pm)
Average87 °F52%29.83 "Hg
* Reported Sep 7 3:00 am — Sep 22 3:00 am, Teresina. Weather by CustomWeather, © 2018

Note: Actual official high and low records may vary slightly from our data, if they occured in-between our weather recording intervals... More about our weather records

Advertising

Teresina Weather History for the Previous 24 Hours

Scroll right to see more
 ConditionsComfort  
Time TempWeatherWind HumidityBarometerVisibility
3:00 am
Sat, Sep 22
77 °FClear.3 mph74%29.80 "Hg10 mi
2:00 am79 °FClear.7 mph70%29.80 "Hg10 mi
1:00 am82 °FClear.1 mph58%29.83 "Hg10 mi
12:00 am82 °FClear.5 mph58%29.83 "Hg10 mi
11:00 pm
Fri, Sep 21
84 °FClear.8 mph55%29.83 "Hg10 mi
10:00 pm86 °FClear.9 mph43%29.83 "Hg10 mi
9:00 pm88 °FClear.No wind43%29.80 "Hg10 mi
8:00 pm90 °FClear.2 mph41%29.80 "Hg10 mi
7:00 pm91 °FClear.2 mph32%29.77 "Hg10 mi
6:00 pm97 °FClear.3 mph25%29.77 "Hg10 mi
5:00 pm99 °FSunny.7 mph22%29.74 "Hg10 mi
4:00 pm100 °FSunny.8 mph22%29.74 "Hg10 mi
3:00 pm100 °FSunny.9 mph21%29.74 "Hg10 mi
2:00 pm99 °FSunny.13 mph25%29.77 "Hg10 mi
1:00 pm97 °FScattered clouds.7 mph28%29.83 "HgN/A
12:00 pm95 °FScattered clouds.9 mph34%29.86 "HgN/A
11:00 am93 °FSunny.9 mph36%29.89 "Hg10 mi
10:00 am91 °FSunny.10 mph41%29.92 "Hg10 mi
9:00 am88 °FSunny.10 mph49%29.92 "Hg10 mi
8:00 am84 °FSunny.5 mph58%29.92 "Hg10 mi
7:00 am81 °FSunny.3 mph74%29.92 "Hg10 mi
6:00 am77 °FSunny.No wind79%29.89 "Hg10 mi
5:00 am77 °FClear.2 mph79%29.89 "Hg10 mi
4:00 am79 °FClear.3 mph79%29.83 "Hg10 mi
Weather by CustomWeather, © 2018

See weather overview